[[{"header":{"parameterUnit":"m.s-1","parameterCategory":1,"la1":30.2991,"la2":30.254,"lo1":-89.0895,"lo2":-89.0444,"dy":0.0017,"dx":0.0017,"nx":28,"ny":28,"refTime":"2025-08-26T03:00:00:Z","depth":0,"parameterNumber":2,"parameterNumberName":"U-component_of_WINDS"},"data":[0,0,0,0,0,0,0,0,0,0,0,0,0,0,0,0,0,0,0,0,0,0,0,0,0,0,0,0,0,0,0,0,0,0,0,0,0,0,0,0,0,0,0,0,0,0,0,0,0,0,0,0,0,0,0,0,0,0,-0.4107,-0.4107,0,-0.4144,-0.4145,-0.4145,-0.416,-0.416,-0.416,-0.416,-0.4199,-0.42,-0.4201,0,0,0,0,0,0,0,0,0,0,0,0,0,-0.4047,-0.4048,-0.4107,-0.4107,-0.4108,-0.4144,-0.4145,-0.4145,-0.416,-0.416,-0.416,-0.4159,-0.4198,-0.42,-0.4201,0,0,0,0,0,0,0,0,0,0,0,0,0,-0.4078,-0.4049,-0.4107,-0.4119,-0.4121,-0.4144,-0.4145,-0.4145,-0.416,-0.416,-0.416,-0.4159,-0.4198,-0.42,-0.4201,-0.4215,0,0,-0.4206,-0.4207,0,0,0,0,0,0,0,0,-0.4076,-0.408,-0.4117,-0.4119,-0.412,-0.4147,-0.4138,-0.4169,-0.416,-0.4145,-0.416,-0.4159,-0.4182,-0.4185,-0.4192,-0.4217,-0.4218,-0.4207,-0.4208,-0.4208,-0.4209,0,0,0,0,0,0,0,-0.4074,-0.4078,-0.4122,-0.4118,-0.412,-0.4123,-0.4127,-0.4144,-0.4164,-0.4146,-0.4148,-0.4152,-0.4183,-0.419,-0.4193,-0.4219,-0.4207,-0.4208,-0.4209,-0.421,-0.4254,-0.4254,0,0,0,0,0,0,-0.407,-0.4077,-0.412,-0.4123,-0.4097,-0.4124,-0.4129,-0.4139,-0.4164,-0.4167,-0.4152,-0.4152,-0.4188,-0.4191,-0.4195,-0.4211,-0.4208,-0.421,-0.4211,-0.4254,-0.4254,-0.4254,0,0,0,0,0,0,-0.4068,-0.4073,-0.4119,-0.41,-0.4106,-0.4125,-0.4136,-0.414,-0.4147,-0.4168,-0.4171,-0.4156,-0.4188,-0.4192,-0.4209,-0.4213,-0.4211,-0.4212,-0.4254,-0.4254,-0.4254,-0.4245,0,0,0,0,0,0,-0.4067,-0.4073,-0.4079,-0.41,-0.4107,-0.4133,-0.4137,-0.414,-0.415,-0.4151,-0.4173,-0.4176,-0.4188,-0.4206,-0.4211,-0.4215,-0.4214,-0.4254,-0.4254,-0.4254,-0.4245,-0.4245,-0.4244,0,0,0,0,0,-0.4064,-0.4075,-0.4079,-0.4084,-0.4114,-0.4133,-0.4137,-0.415,-0.415,-0.4156,-0.4169,-0.4176,-0.4211,-0.4208,-0.4213,-0.4218,-0.4253,-0.4254,-0.4254,-0.4245,-0.4245,-0.4244,0,0,0,0,0,0,-0.4055,-0.4078,-0.4083,-0.4101,-0.4115,-0.4136,-0.4144,-0.415,-0.4164,-0.4165,-0.418,-0.4185,-0.42,-0.4211,-0.4207,-0.4231,-0.4233,-0.4234,-0.4224,-0.4224,-0.4224,-0.4221,-0.4215,0,0,0,0,0,-0.4055,-0.4068,-0.4088,-0.4102,-0.4108,-0.4124,-0.4133,-0.4141,-0.4157,-0.4163,-0.4177,-0.4192,-0.4206,-0.4216,-0.423,-0.4246,-0.425,-0.4251,-0.4251,-0.4251,-0.4252,-0.426,-0.426,-0.4255,-0.4255,-0.4255,0,0,-0.4055,-0.4069,-0.4077,-0.41,-0.4112,-0.4125,-0.413,-0.4144,-0.4153,-0.4165,-0.4182,-0.4192,-0.421,-0.4226,-0.4234,-0.4235,-0.4254,-0.4251,-0.4251,-0.4252,-0.426,-0.4261,-0.4261,-0.4256,-0.4256,-0.4256,0,0,-0.4062,-0.4074,-0.4086,-0.4098,-0.4115,-0.4125,-0.4128,-0.4148,-0.4155,-0.4171,-0.418,-0.4191,-0.4216,-0.4228,-0.4237,-0.4245,-0.4252,-0.4249,-0.4249,-0.4256,-0.4256,-0.4257,-0.4259,-0.426,-0.425,-0.425,-0.425,0,-0.406,-0.408,-0.4092,-0.4105,-0.4114,-0.4124,-0.4137,-0.4147,-0.4168,-0.4174,-0.4175,-0.4205,-0.4218,-0.4236,-0.4237,-0.4245,-0.4248,-0.4247,-0.4255,-0.4256,-0.4256,-0.4259,-0.4259,-0.425,-0.425,-0.425,-0.425,0,-0.4077,-0.409,-0.4098,-0.4117,-0.4127,-0.414,-0.4153,-0.4162,-0.4168,-0.4178,-0.4194,-0.4208,-0.4225,-0.423,-0.4237,-0.4249,-0.4249,-0.4252,-0.4254,-0.4256,-0.4258,-0.426,-0.4249,-0.4249,-0.4249,-0.4249,0,0,-0.4081,-0.4105,-0.4107,-0.4115,-0.4134,-0.4145,-0.4157,-0.4172,-0.4179,-0.4193,-0.4203,-0.4222,-0.4225,-0.4235,-0.4243,-0.4249,-0.4253,-0.4252,-0.4252,-0.4251,-0.4266,-0.4263,-0.4264,-0.4257,-0.4257,-0.4258,-0.4264,0,-0.4091,-0.4113,-0.4123,-0.414,-0.4152,-0.416,-0.4171,-0.4183,-0.4192,-0.4203,-0.4212,-0.4226,-0.4228,-0.4234,-0.4241,-0.4252,-0.4257,-0.4251,-0.4267,-0.4267,-0.4263,-0.4266,-0.4264,-0.427,-0.4265,-0.4265,-0.4266,0,-0.4106,-0.4118,-0.4136,-0.4151,-0.4157,-0.4166,-0.418,-0.4191,-0.4204,-0.421,-0.4219,-0.4227,-0.4239,-0.4239,-0.4255,-0.4251,-0.4258,-0.4264,-0.4264,-0.4267,-0.4267,-0.4269,-0.4272,-0.4273,-0.4267,-0.4267,-0.4267,0,-0.4107,-0.4128,-0.4141,-0.4148,-0.4166,-0.4172,-0.418,-0.4193,-0.4201,-0.4213,-0.4218,-0.4231,-0.4239,-0.4249,-0.4259,-0.4258,-0.4274,-0.4275,-0.4279,-0.4279,-0.4283,-0.4283,-0.4287,-0.4286,-0.4286,-0.4286,-0.4286,0,-0.4117,-0.4128,-0.4141,-0.415,-0.4162,-0.4172,-0.4183,-0.4192,-0.4203,-0.4212,-0.422,-0.4229,-0.4241,-0.4252,-0.426,-0.4271,-0.4275,-0.4279,-0.4282,-0.4279,-0.4278,-0.4284,-0.4284,-0.4287,-0.4286,-0.4286,-0.4286,0,-0.4121,-0.413,-0.4145,-0.416,-0.4164,-0.4172,-0.4185,-0.4193,-0.4201,-0.4213,-0.4216,-0.4229,-0.4241,-0.4251,-0.4268,-0.4273,-0.4285,-0.4288,-0.4281,-0.4282,-0.4285,-0.4284,-0.4294,-0.4295,-0.4293,-0.4293,-0.4293,0,-0.4127,-0.4135,-0.415,-0.4157,-0.4164,-0.4175,-0.4182,-0.4192,-0.42,-0.4214,-0.422,-0.4232,-0.4242,-0.4261,-0.4272,-0.4284,-0.4287,-0.4289,-0.4289,-0.4285,-0.4286,-0.4286,-0.4286,-0.4289,-0.4289,-0.4289,-0.4289,0,-0.4136,-0.414,-0.4151,-0.4162,-0.4171,-0.4181,-0.4191,-0.4196,-0.4207,-0.4215,-0.4227,-0.4235,-0.425,-0.4262,-0.4274,-0.4282,-0.4287,-0.4289,-0.429,-0.4288,-0.4284,-0.4286,-0.428,-0.4289,-0.4289,-0.4289,-0.4289,-0.4289,-0.4142,-0.4149,-0.416,-0.4171,-0.4179,-0.4187,-0.4195,-0.4203,-0.4213,-0.4226,-0.4231,-0.4242,-0.4253,-0.4271,-0.4278,-0.4287,-0.4288,-0.429,-0.4291,-0.4291,-0.4291,-0.4281,-0.4289,-0.4289,-0.4289,-0.4289,-0.4289,0,-0.4152,-0.4158,-0.4168,-0.4181,-0.4189,-0.4192,-0.4202,-0.4209,-0.4219,-0.4229,-0.4238,-0.4251,-0.4262,-0.4272,-0.4283,-0.4288,-0.4291,-0.4291,-0.4291,-0.4292,-0.4289,-0.4287,-0.4289,-0.4289,-0.4289,-0.4289,-0.4289,-0.4288,-0.4158,-0.417,-0.4174,-0.4189,-0.4196,-0.4207,-0.4213,-0.422,-0.4227,-0.4241,-0.425,-0.4256,-0.4265,-0.4277,-0.4286,-0.4289,-0.4293,-0.4292,-0.4296,-0.4293,-0.4293,-0.4293,-0.4291,-0.4293,-0.4293,-0.4298,-0.4298,-0.4298]},{"header":{"parameterUnit":"m.s-1","parameterCategory":1,"la1":30.2991,"la2":30.254,"lo1":-89.0895,"lo2":-89.0444,"dy":0.0017,"dx":0.0017,"nx":28,"ny":28,"refTime":"2025-08-26T03:00:00:Z","depth":0,"parameterNumber":3,"parameterNumberName":"V-component_of_WINDS"},"data":[0,0,0,0,0,0,0,0,0,0,0,0,0,0,0,0,0,0,0,0,0,0,0,0,0,0,0,0,0,0,0,0,0,0,0,0,0,0,0,0,0,0,0,0,0,0,0,0,0,0,0,0,0,0,0,0,0,0,-1.8105,-1.8106,0,-1.8214,-1.8215,-1.8216,-1.827,-1.827,-1.827,-1.827,-1.8379,-1.8381,-1.8384,0,0,0,0,0,0,0,0,0,0,0,0,0,-1.7941,-1.7944,-1.8105,-1.8106,-1.8108,-1.8213,-1.8215,-1.8216,-1.827,-1.827,-1.827,-1.827,-1.8378,-1.8381,-1.8385,0,0,0,0,0,0,0,0,0,0,0,0,0,-1.8027,-1.7945,-1.8105,-1.8147,-1.8152,-1.8213,-1.8215,-1.8217,-1.827,-1.827,-1.827,-1.827,-1.8376,-1.8381,-1.8385,-1.8412,0,0,-1.8398,-1.84,0,0,0,0,0,0,0,0,-1.8022,-1.8033,-1.8139,-1.8144,-1.815,-1.8228,-1.8197,-1.8282,-1.827,-1.8225,-1.827,-1.827,-1.8328,-1.8337,-1.8357,-1.8417,-1.8421,-1.8399,-1.8401,-1.8403,-1.8404,0,0,0,0,0,0,0,-1.8016,-1.8029,-1.8148,-1.8141,-1.8147,-1.816,-1.8172,-1.8213,-1.8275,-1.8229,-1.8233,-1.8245,-1.8331,-1.8353,-1.836,-1.8423,-1.8398,-1.8402,-1.8405,-1.8407,-1.851,-1.851,0,0,0,0,0,0,-1.8004,-1.8023,-1.8144,-1.8151,-1.8085,-1.8163,-1.8176,-1.8203,-1.8275,-1.8286,-1.8245,-1.8247,-1.8345,-1.8355,-1.8364,-1.84,-1.8403,-1.8407,-1.841,-1.851,-1.851,-1.851,0,0,0,0,0,0,-1.8,-1.8014,-1.814,-1.8088,-1.8105,-1.8166,-1.8195,-1.8205,-1.8227,-1.8287,-1.8298,-1.8256,-1.8346,-1.8358,-1.8399,-1.8404,-1.8409,-1.8413,-1.8509,-1.851,-1.851,-1.8472,0,0,0,0,0,0,-1.7995,-1.8012,-1.8024,-1.8088,-1.8108,-1.8174,-1.8195,-1.8207,-1.8234,-1.8238,-1.83,-1.831,-1.8347,-1.8393,-1.8404,-1.841,-1.8416,-1.8509,-1.8509,-1.851,-1.8473,-1.8471,-1.8469,0,0,0,0,0,-1.7989,-1.8008,-1.8024,-1.8038,-1.8124,-1.8174,-1.8186,-1.8227,-1.8234,-1.8246,-1.8285,-1.8308,-1.8402,-1.8396,-1.8409,-1.8417,-1.8509,-1.8509,-1.851,-1.8474,-1.8471,-1.8469,0,0,0,0,0,0,-1.7942,-1.8017,-1.8036,-1.8077,-1.8119,-1.8183,-1.8199,-1.8223,-1.8264,-1.8266,-1.8315,-1.8329,-1.8366,-1.8396,-1.8388,-1.8447,-1.8458,-1.8461,-1.8426,-1.8424,-1.8422,-1.8414,-1.842,0,0,0,0,0,-1.7936,-1.7972,-1.8036,-1.8066,-1.8086,-1.8139,-1.8162,-1.8191,-1.8236,-1.8254,-1.8296,-1.8339,-1.8378,-1.8403,-1.8442,-1.8477,-1.8491,-1.8489,-1.8487,-1.8485,-1.8487,-1.8508,-1.8508,-1.8511,-1.8511,-1.8511,0,0,-1.7925,-1.7971,-1.799,-1.8057,-1.8093,-1.8129,-1.8153,-1.819,-1.8216,-1.826,-1.8302,-1.8334,-1.8385,-1.8423,-1.8442,-1.8449,-1.8489,-1.8485,-1.8483,-1.8487,-1.8508,-1.8508,-1.8508,-1.8511,-1.8511,-1.8511,0,0,-1.7922,-1.7961,-1.799,-1.8025,-1.808,-1.8115,-1.8122,-1.8183,-1.8206,-1.8249,-1.8283,-1.8314,-1.8381,-1.8415,-1.8442,-1.8452,-1.8475,-1.8463,-1.8452,-1.8472,-1.8472,-1.8472,-1.8476,-1.8476,-1.8465,-1.8465,-1.8465,0,-1.7901,-1.7957,-1.8001,-1.8036,-1.8064,-1.8106,-1.8135,-1.8167,-1.8231,-1.825,-1.8257,-1.8341,-1.8378,-1.8425,-1.8428,-1.8448,-1.8457,-1.8456,-1.8469,-1.8469,-1.847,-1.8474,-1.8475,-1.8463,-1.8463,-1.8463,-1.8463,0,-1.7928,-1.7966,-1.7982,-1.8044,-1.8074,-1.8106,-1.8155,-1.818,-1.8205,-1.8239,-1.8282,-1.8328,-1.8377,-1.8391,-1.8416,-1.8442,-1.8444,-1.8459,-1.8471,-1.8467,-1.8472,-1.8473,-1.846,-1.8461,-1.8462,-1.8462,0,0,-1.7899,-1.7985,-1.799,-1.8019,-1.8082,-1.8112,-1.8145,-1.8194,-1.8214,-1.8257,-1.8286,-1.834,-1.8355,-1.8384,-1.8414,-1.8431,-1.8436,-1.8444,-1.8446,-1.8441,-1.8467,-1.8456,-1.8457,-1.8452,-1.8452,-1.8453,-1.8463,0,-1.7905,-1.7968,-1.8009,-1.8055,-1.809,-1.813,-1.8159,-1.82,-1.8233,-1.8267,-1.8302,-1.834,-1.8356,-1.8375,-1.8393,-1.8432,-1.8442,-1.8431,-1.8479,-1.848,-1.8465,-1.846,-1.8448,-1.8455,-1.8465,-1.8466,-1.8466,0,-1.7922,-1.7964,-1.8013,-1.8073,-1.8089,-1.8114,-1.8162,-1.8194,-1.8242,-1.8264,-1.8297,-1.8327,-1.8363,-1.8372,-1.8422,-1.8413,-1.8435,-1.8457,-1.8458,-1.8464,-1.8473,-1.8466,-1.8459,-1.846,-1.8469,-1.8469,-1.8469,0,-1.7896,-1.7965,-1.8004,-1.8027,-1.8097,-1.8113,-1.8143,-1.8191,-1.8217,-1.8259,-1.8277,-1.8321,-1.8346,-1.838,-1.8421,-1.8423,-1.8466,-1.8478,-1.8486,-1.8485,-1.8493,-1.8492,-1.849,-1.8507,-1.8507,-1.8507,-1.8507,0,-1.7899,-1.7928,-1.7993,-1.8017,-1.805,-1.8096,-1.8128,-1.8161,-1.8202,-1.8233,-1.8269,-1.8297,-1.8349,-1.8383,-1.8415,-1.8452,-1.8462,-1.8481,-1.8489,-1.8478,-1.8476,-1.8493,-1.8494,-1.8507,-1.8507,-1.8507,-1.8507,0,-1.7876,-1.7921,-1.7965,-1.8028,-1.8044,-1.8066,-1.8119,-1.8144,-1.8178,-1.8216,-1.8227,-1.8281,-1.8322,-1.8367,-1.8423,-1.8445,-1.848,-1.8491,-1.8464,-1.8469,-1.8473,-1.8472,-1.8483,-1.8486,-1.85,-1.85,-1.8499,0,-1.7875,-1.7898,-1.7963,-1.7987,-1.8016,-1.8052,-1.808,-1.8126,-1.8153,-1.8209,-1.8226,-1.8271,-1.8309,-1.8373,-1.8417,-1.846,-1.8473,-1.8474,-1.848,-1.8468,-1.8473,-1.8472,-1.8474,-1.8472,-1.8471,-1.8471,-1.8471,0,-1.7868,-1.789,-1.7928,-1.7975,-1.8007,-1.8045,-1.8085,-1.8102,-1.8156,-1.8184,-1.8228,-1.8257,-1.8315,-1.8359,-1.8407,-1.8437,-1.8463,-1.8468,-1.8472,-1.8461,-1.8445,-1.8454,-1.8459,-1.8468,-1.8468,-1.8468,-1.8469,-1.8469,-1.7857,-1.7879,-1.7929,-1.797,-1.8005,-1.8042,-1.8068,-1.8105,-1.8143,-1.8194,-1.8219,-1.8262,-1.8308,-1.8376,-1.8406,-1.844,-1.8447,-1.8453,-1.8454,-1.8455,-1.8452,-1.8439,-1.8449,-1.8449,-1.8449,-1.8449,-1.8449,0,-1.7852,-1.7886,-1.7924,-1.7979,-1.8012,-1.8034,-1.8079,-1.8105,-1.8143,-1.8184,-1.8221,-1.8271,-1.8313,-1.836,-1.8405,-1.8423,-1.8436,-1.8434,-1.8433,-1.8439,-1.8443,-1.8435,-1.8422,-1.8422,-1.8422,-1.8422,-1.8422,-1.8422,-1.7854,-1.7893,-1.792,-1.7977,-1.801,-1.8053,-1.8077,-1.8111,-1.8145,-1.8199,-1.8234,-1.8265,-1.8308,-1.8357,-1.8397,-1.8409,-1.8424,-1.8418,-1.8434,-1.8437,-1.8439,-1.8441,-1.8434,-1.8421,-1.8421,-1.8428,-1.8428,-1.8428]}]]